Time,TemperatureF,DewpointF,PressureIn,WindDirection,WindDirectionDegrees,WindSpeedMPH,WindSpeedGustMPH,Humidity,HourlyPrecipIn,Conditions,Clouds,dailyrainin,SoftwareType,DateUTC
2013-04-17 00:00:00,28.3,25.7,30.05,WSW,240,0.0,0.0,90,0.00,,,0.00,Wunderground v.1.15,2013-04-17 06:00:00,
2013-04-17 00:05:00,28.4,26.1,30.05,WSW,242,0.0,0.0,91,0.00,,,0.00,Wunderground v.1.15,2013-04-17 06:05:00,
2013-04-17 00:15:00,28.3,26.0,30.05,WSW,242,0.0,0.0,91,0.00,,,0.00,Wunderground v.1.15,2013-04-17 06:15:00,
2013-04-17 00:20:00,28.3,26.0,30.05,WSW,249,0.0,0.0,91,0.00,,,0.00,Wunderground v.1.15,2013-04-17 06:20:00,
2013-04-17 00:25:00,28.4,26.1,30.05,WSW,249,0.0,0.0,91,0.00,,,0.00,Wunderground v.1.15,2013-04-17 06:25:00,
2013-04-17 00:30:00,28.3,26.0,30.05,WSW,248,0.0,0.0,91,0.00,,,0.00,Wunderground v.1.15,2013-04-17 06:30:00,
2013-04-17 00:35:00,28.3,26.0,30.05,WSW,239,0.0,0.0,91,0.00,,,0.00,Wunderground v.1.15,2013-04-17 06:35:00,
2013-04-17 00:40:00,28.4,26.1,30.05,SW,229,0.0,0.0,91,0.00,,,0.00,Wunderground v.1.15,2013-04-17 06:40:00,
2013-04-17 00:50:00,28.4,25.8,30.05,West,266,0.0,0.0,90,0.00,,,0.00,Wunderground v.1.15,2013-04-17 06:50:00,
2013-04-17 00:55:00,28.4,25.8,30.05,WSW,239,0.0,0.0,90,0.00,,,0.00,Wunderground v.1.15,2013-04-17 06:55:00,
2013-04-17 01:00:00,28.4,25.8,30.05,WSW,249,0.0,0.0,90,0.00,,,0.00,Wunderground v.1.15,2013-04-17 07:00:00,
2013-04-17 01:05:00,28.5,25.9,30.05,WSW,242,0.0,0.0,90,0.00,,,0.00,Wunderground v.1.15,2013-04-17 07:05:00,
2013-04-17 01:15:00,28.4,25.8,30.05,SW,228,0.0,0.0,90,0.00,,,0.00,Wunderground v.1.15,2013-04-17 07:15:00,
2013-04-17 01:20:00,28.4,25.8,30.05,WSW,240,0.0,0.0,90,0.00,,,0.00,Wunderground v.1.15,2013-04-17 07:20:00,
2013-04-17 01:30:00,28.5,25.9,30.05,West,264,0.0,0.0,90,0.00,,,0.00,Wunderground v.1.15,2013-04-17 07:30:00,
2013-04-17 01:40:00,28.5,25.9,30.04,SE,124,0.0,0.0,90,0.00,,,0.00,Wunderground v.1.15,2013-04-17 07:40:00,
2013-04-17 01:45:00,28.5,26.2,30.04,SW,231,0.0,0.0,91,0.00,,,0.00,Wunderground v.1.15,2013-04-17 07:45:00,
2013-04-17 01:50:00,28.5,26.2,30.04,SSE,153,0.0,0.0,91,0.00,,,0.00,Wunderground v.1.15,2013-04-17 07:50:00,
2013-04-17 01:55:00,28.5,26.2,30.04,SSE,152,0.0,0.0,91,0.00,,,0.00,Wunderground v.1.15,2013-04-17 07:55:00,
2013-04-17 02:00:00,28.5,26.2,30.03,WSW,248,0.0,0.0,91,0.00,,,0.00,Wunderground v.1.15,2013-04-17 08:00:00,
2013-04-17 02:05:00,28.4,26.1,30.03,SE,129,0.0,0.0,91,0.00,,,0.00,Wunderground v.1.15,2013-04-17 08:05:00,
2013-04-17 02:15:00,28.4,26.1,30.03,SW,229,0.0,0.0,91,0.00,,,0.00,Wunderground v.1.15,2013-04-17 08:15:00,
2013-04-17 02:25:00,28.5,26.2,30.03,North,5,0.0,0.0,91,0.00,,,0.00,Wunderground v.1.15,2013-04-17 08:25:00,
2013-04-17 02:30:00,28.6,26.3,30.02,NE,43,0.0,0.0,91,0.00,,,0.00,Wunderground v.1.15,2013-04-17 08:30:00,
2013-04-17 02:35:00,28.7,26.1,30.02,ENE,68,0.0,0.0,90,0.00,,,0.00,Wunderground v.1.15,2013-04-17 08:35:00,
2013-04-17 02:40:00,28.8,26.2,30.02,ENE,68,0.0,0.0,90,0.00,,,0.00,Wunderground v.1.15,2013-04-17 08:40:00,
2013-04-17 02:45:00,28.7,26.1,30.02,East,81,0.0,0.0,90,0.00,,,0.00,Wunderground v.1.15,2013-04-17 08:45:00,
2013-04-17 02:50:00,28.7,26.1,30.02,WNW,284,0.0,0.0,90,0.00,,,0.00,Wunderground v.1.15,2013-04-17 08:50:00,
2013-04-17 02:55:00,28.7,26.1,30.02,NNW,342,0.0,0.0,90,0.00,,,0.00,Wunderground v.1.15,2013-04-17 08:55:00,
2013-04-17 03:05:00,28.6,26.0,30.02,ENE,74,0.0,0.0,90,0.00,,,0.00,Wunderground v.1.15,2013-04-17 09:05:00,
2013-04-17 03:15:00,28.4,25.8,30.02,East,84,0.0,0.0,90,0.00,,,0.00,Wunderground v.1.15,2013-04-17 09:15:00,
2013-04-17 03:20:00,28.4,25.8,30.02,ENE,60,0.0,0.0,90,0.00,,,0.00,Wunderground v.1.15,2013-04-17 09:20:00,
2013-04-17 03:25:00,28.4,25.8,30.01,ENE,63,0.0,0.0,90,0.00,,,0.00,Wunderground v.1.15,2013-04-17 09:25:00,
2013-04-17 03:30:00,28.3,25.7,30.01,ENE,64,0.0,0.0,90,0.00,,,0.00,Wunderground v.1.15,2013-04-17 09:30:00,
2013-04-17 03:40:00,28.3,25.7,30.01,SE,134,0.0,0.0,90,0.00,,,0.00,Wunderground v.1.15,2013-04-17 09:40:00,
2013-04-17 03:45:00,28.3,25.7,30.01,SE,124,0.0,0.0,90,0.00,,,0.00,Wunderground v.1.15,2013-04-17 09:45:00,
2013-04-17 03:50:00,28.3,26.0,30.02,SE,127,0.0,0.0,91,0.00,,,0.00,Wunderground v.1.15,2013-04-17 09:50:00,
2013-04-17 03:55:00,28.3,26.0,30.02,East,79,0.0,0.0,91,0.00,,,0.00,Wunderground v.1.15,2013-04-17 09:55:00,
2013-04-17 04:00:00,28.2,25.6,30.01,ESE,103,0.0,0.0,90,0.00,,,0.00,Wunderground v.1.15,2013-04-17 10:00:00,
2013-04-17 04:05:00,28.2,25.6,30.01,ENE,76,0.0,0.0,90,0.00,,,0.00,Wunderground v.1.15,2013-04-17 10:05:00,
2013-04-17 04:15:00,28.2,25.6,30.01,East,101,0.0,0.0,90,0.00,,,0.00,Wunderground v.1.15,2013-04-17 10:15:00,
2013-04-17 04:20:00,28.1,25.5,30.01,ESE,102,0.0,0.0,90,0.00,,,0.00,Wunderground v.1.15,2013-04-17 10:20:00,
2013-04-17 04:25:00,28.1,25.5,30.01,ENE,77,0.0,0.0,90,0.00,,,0.00,Wunderground v.1.15,2013-04-17 10:25:00,
2013-04-17 04:30:00,28.1,25.5,30.01,ENE,76,0.0,0.0,90,0.00,,,0.00,Wunderground v.1.15,2013-04-17 10:30:00,
2013-04-17 04:35:00,28.1,25.5,30.01,ENE,77,0.0,0.0,90,0.00,,,0.00,Wunderground v.1.15,2013-04-17 10:35:00,
2013-04-17 04:40:00,28.1,25.8,30.01,ENE,76,0.0,0.0,91,0.00,,,0.00,Wunderground v.1.15,2013-04-17 10:40:00,
2013-04-17 04:45:00,28.1,25.8,30.01,ENE,77,0.0,0.0,91,0.00,,,0.00,Wunderground v.1.15,2013-04-17 10:45:00,
2013-04-17 04:50:00,28.1,25.8,30.01,East,97,0.0,0.0,91,0.00,,,0.00,Wunderground v.1.15,2013-04-17 10:50:00,
2013-04-17 05:00:00,28.0,25.7,30.00,NE,51,0.0,0.0,91,0.00,,,0.00,Wunderground v.1.15,2013-04-17 11:00:00,
2013-04-17 05:05:00,28.0,25.7,30.01,ESE,115,0.0,0.0,91,0.00,,,0.00,Wunderground v.1.15,2013-04-17 11:05:00,
2013-04-17 05:15:00,28.0,25.7,30.01,ESE,105,0.0,0.0,91,0.00,,,0.00,Wunderground v.1.15,2013-04-17 11:15:00,
2013-04-17 05:20:00,28.1,25.8,30.00,ENE,70,0.0,0.0,91,0.00,,,0.00,Wunderground v.1.15,2013-04-17 11:20:00,
2013-04-17 05:25:00,28.1,25.8,30.00,ENE,70,0.0,0.0,91,0.00,,,0.00,Wunderground v.1.15,2013-04-17 11:25:00,
2013-04-17 05:35:00,28.0,25.7,30.00,ENE,68,0.0,0.0,91,0.00,,,0.00,Wunderground v.1.15,2013-04-17 11:35:00,
2013-04-17 05:40:00,28.0,25.7,30.00,East,84,0.0,0.0,91,0.00,,,0.00,Wunderground v.1.15,2013-04-17 11:40:00,
2013-04-17 05:45:00,28.0,25.7,30.00,ENE,65,0.0,0.0,91,0.00,,,0.00,Wunderground v.1.15,2013-04-17 11:45:00,
2013-04-17 05:50:00,28.0,25.7,30.00,ENE,77,0.0,0.0,91,0.00,,,0.00,Wunderground v.1.15,2013-04-17 11:50:00,
2013-04-17 05:55:00,28.0,25.7,30.00,East,79,0.0,0.0,91,0.00,,,0.00,Wunderground v.1.15,2013-04-17 11:55:00,
2013-04-17 06:00:00,28.0,25.4,30.00,East,87,0.0,0.0,90,0.00,,,0.00,Wunderground v.1.15,2013-04-17 12:00:00,
2013-04-17 06:05:00,28.0,25.7,30.00,SE,125,0.0,0.0,91,0.00,,,0.00,Wunderground v.1.15,2013-04-17 12:05:00,
2013-04-17 06:15:00,28.0,25.7,30.00,NE,56,0.0,0.0,91,0.00,,,0.00,Wunderground v.1.15,2013-04-17 12:15:00,
2013-04-17 06:20:00,28.0,25.7,30.00,East,84,0.0,0.0,91,0.00,,,0.00,Wunderground v.1.15,2013-04-17 12:20:00,
2013-04-17 06:25:00,27.9,25.3,29.99,East,86,0.0,0.0,90,0.00,,,0.00,Wunderground v.1.15,2013-04-17 12:25:00,
2013-04-17 06:30:00,27.9,25.3,29.99,NE,54,0.0,0.0,90,0.00,,,0.00,Wunderground v.1.15,2013-04-17 12:30:00,
2013-04-17 06:35:00,27.9,25.3,29.99,NE,56,0.0,0.0,90,0.00,,,0.00,Wunderground v.1.15,2013-04-17 12:35:00,
2013-04-17 06:40:00,27.9,25.6,29.99,SE,144,0.0,0.0,91,0.00,,,0.00,Wunderground v.1.15,2013-04-17 12:40:00,
2013-04-17 06:45:00,27.9,25.3,30.00,NE,56,0.0,0.0,90,0.00,,,0.00,Wunderground v.1.15,2013-04-17 12:45:00,
2013-04-17 06:50:00,28.0,25.7,30.00,East,84,0.0,0.0,91,0.00,,,0.00,Wunderground v.1.15,2013-04-17 12:50:00,
2013-04-17 07:00:00,27.8,25.5,30.00,ESE,116,0.0,0.0,91,0.00,,,0.00,Wunderground v.1.15,2013-04-17 13:00:00,
2013-04-17 07:05:00,27.8,25.5,30.00,East,79,0.0,0.0,91,0.00,,,0.00,Wunderground v.1.15,2013-04-17 13:05:00,
2013-04-17 07:15:00,27.8,25.5,29.99,ENE,68,0.0,0.0,91,0.00,,,0.00,Wunderground v.1.15,2013-04-17 13:15:00,
2013-04-17 07:20:00,27.8,25.5,29.99,East,79,0.0,0.0,91,0.00,,,0.00,Wunderground v.1.15,2013-04-17 13:20:00,
2013-04-17 07:25:00,27.9,25.6,29.99,East,79,0.0,0.0,91,0.00,,,0.00,Wunderground v.1.15,2013-04-17 13:25:00,
2013-04-17 07:30:00,27.9,25.6,29.99,ENE,75,0.0,0.0,91,0.00,,,0.00,Wunderground v.1.15,2013-04-17 13:30:00,
2013-04-17 07:40:00,27.9,25.6,29.99,ENE,70,0.0,0.0,91,0.00,,,0.00,Wunderground v.1.15,2013-04-17 13:40:00,
2013-04-17 07:45:00,28.1,25.5,29.99,NE,47,0.0,0.0,90,0.00,,,0.00,Wunderground v.1.15,2013-04-17 13:45:00,
2013-04-17 07:50:00,28.1,25.5,29.99,ESE,104,0.0,0.0,90,0.00,,,0.00,Wunderground v.1.15,2013-04-17 13:50:00,
2013-04-17 07:55:00,28.3,25.7,30.00,ENE,70,0.0,0.0,90,0.00,,,0.00,Wunderground v.1.15,2013-04-17 13:55:00,
2013-04-17 08:00:00,28.5,25.9,29.99,East,79,0.0,0.0,90,0.00,,,0.00,Wunderground v.1.15,2013-04-17 14:00:00,
2013-04-17 08:05:00,28.6,26.0,29.99,East,94,0.0,0.0,90,0.00,,,0.00,Wunderground v.1.15,2013-04-17 14:05:00,
2013-04-17 08:15:00,28.9,26.3,29.99,ENE,78,0.0,0.0,90,0.00,,,0.00,Wunderground v.1.15,2013-04-17 14:15:00,
2013-04-17 08:20:00,28.9,26.1,29.98,ESE,113,0.0,0.0,89,0.00,,,0.00,Wunderground v.1.15,2013-04-17 14:20:00,
2013-04-17 08:25:00,28.8,26.0,29.99,SSE,150,0.0,0.0,89,0.00,,,0.00,Wunderground v.1.15,2013-04-17 14:25:00,
2013-04-17 08:35:00,29.1,26.0,29.99,East,101,0.0,0.0,88,0.00,,,0.00,Wunderground v.1.15,2013-04-17 14:35:00,
2013-04-17 08:40:00,29.5,26.4,29.98,ESE,104,0.0,0.0,88,0.00,,,0.00,Wunderground v.1.15,2013-04-17 14:40:00,
2013-04-17 08:45:00,29.7,26.3,29.98,ESE,115,0.0,0.0,87,0.00,,,0.00,Wunderground v.1.15,2013-04-17 14:45:00,
2013-04-17 08:55:00,29.3,25.9,29.98,NE,56,0.0,0.0,87,0.00,,,0.00,Wunderground v.1.15,2013-04-17 14:55:00,
2013-04-17 09:00:00,29.2,25.8,29.98,SE,136,0.0,0.0,87,0.00,,,0.00,Wunderground v.1.15,2013-04-17 15:00:00,
2013-04-17 09:05:00,29.4,25.7,29.98,SE,124,0.0,0.0,86,0.00,,,0.00,Wunderground v.1.15,2013-04-17 15:05:00,
2013-04-17 09:15:00,30.0,26.0,29.98,SE,124,0.0,0.0,85,0.00,,,0.00,Wunderground v.1.15,2013-04-17 15:15:00,
2013-04-17 09:20:00,30.2,26.2,29.98,SE,124,0.0,0.0,85,0.00,,,0.00,Wunderground v.1.15,2013-04-17 15:20:00,
2013-04-17 09:30:00,30.1,26.1,29.98,SE,136,0.0,0.0,85,0.00,,,0.00,Wunderground v.1.15,2013-04-17 15:30:00,
2013-04-17 09:35:00,30.1,26.4,29.98,ESE,121,0.0,0.0,86,0.00,,,0.00,Wunderground v.1.15,2013-04-17 15:35:00,
2013-04-17 09:45:00,30.2,26.2,29.98,ESE,120,0.0,0.0,85,0.00,,,0.00,Wunderground v.1.15,2013-04-17 15:45:00,
2013-04-17 09:50:00,30.5,26.8,29.98,SE,129,0.0,0.0,86,0.00,,,0.00,Wunderground v.1.15,2013-04-17 15:50:00,
2013-04-17 09:55:00,30.7,27.0,29.99,SE,129,0.0,0.0,86,0.00,,,0.00,Wunderground v.1.15,2013-04-17 15:55:00,
2013-04-17 10:00:00,30.9,26.9,29.98,SE,124,0.0,0.0,85,0.00,,,0.00,Wunderground v.1.15,2013-04-17 16:00:00,
2013-04-17 10:10:00,30.8,27.1,29.98,SE,124,0.0,0.0,86,0.00,,,0.00,Wunderground v.1.15,2013-04-17 16:10:00,
2013-04-17 10:15:00,30.8,27.1,29.98,South,184,0.0,0.0,86,0.00,,,0.00,Wunderground v.1.15,2013-04-17 16:15:00,
2013-04-17 10:20:00,30.9,27.2,29.98,SE,126,0.0,0.0,86,0.00,,,0.00,Wunderground v.1.15,2013-04-17 16:20:00,
2013-04-17 10:25:00,31.2,27.5,29.98,SE,124,0.0,0.0,86,0.00,,,0.00,Wunderground v.1.15,2013-04-17 16:25:00,
2013-04-17 10:30:00,31.4,27.4,29.98,SE,128,0.0,0.0,85,0.00,,,0.00,Wunderground v.1.15,2013-04-17 16:30:00,
2013-04-17 10:35:00,31.3,27.0,29.98,ESE,120,0.0,0.0,84,0.00,,,0.00,Wunderground v.1.15,2013-04-17 16:35:00,
2013-04-17 10:45:00,30.5,26.5,29.98,SE,135,0.0,0.0,85,0.00,,,0.00,Wunderground v.1.15,2013-04-17 16:45:00,
2013-04-17 10:50:00,30.3,26.3,29.97,East,89,0.0,0.0,85,0.00,,,0.00,Wunderground v.1.15,2013-04-17 16:50:00,
2013-04-17 10:55:00,30.2,26.2,29.98,ENE,63,0.0,0.0,85,0.00,,,0.00,Wunderground v.1.15,2013-04-17 16:55:00,
2013-04-17 11:00:00,30.7,27.3,29.98,East,94,0.0,0.0,87,0.00,,,0.00,Wunderground v.1.15,2013-04-17 17:00:00,
2013-04-17 11:05:00,30.9,26.6,29.98,ENE,63,0.0,0.0,84,0.00,,,0.00,Wunderground v.1.15,2013-04-17 17:05:00,
2013-04-17 11:15:00,30.4,26.7,29.98,ESE,115,0.0,0.0,86,0.00,,,0.00,Wunderground v.1.15,2013-04-17 17:15:00,
2013-04-17 11:20:00,30.4,26.7,29.98,East,88,0.0,0.0,86,0.00,,,0.00,Wunderground v.1.15,2013-04-17 17:20:00,
2013-04-17 11:25:00,30.0,25.5,29.97,East,80,0.0,0.0,83,0.00,,,0.00,Wunderground v.1.15,2013-04-17 17:25:00,
2013-04-17 11:30:00,30.0,25.5,29.97,ESE,103,0.0,0.0,83,0.00,,,0.00,Wunderground v.1.15,2013-04-17 17:30:00,
2013-04-17 11:35:00,30.5,25.7,29.97,ESE,121,0.0,0.0,82,0.00,,,0.00,Wunderground v.1.15,2013-04-17 17:35:00,
2013-04-17 11:40:00,31.0,25.9,29.98,NE,56,0.0,0.0,81,0.00,,,0.00,Wunderground v.1.15,2013-04-17 17:40:00,
2013-04-17 11:45:00,31.3,25.5,29.98,ENE,62,0.0,0.0,79,0.00,,,0.00,Wunderground v.1.15,2013-04-17 17:45:00,
2013-04-17 11:50:00,30.7,25.0,29.98,NE,50,0.0,0.0,79,0.00,,,0.00,Wunderground v.1.15,2013-04-17 17:50:00,
2013-04-17 12:00:00,30.6,24.9,29.99,NE,56,0.0,0.0,79,0.00,,,0.00,Wunderground v.1.15,2013-04-17 18:00:00,
2013-04-17 12:05:00,30.9,25.5,29.98,NE,44,0.0,0.0,80,0.00,,,0.00,Wunderground v.1.15,2013-04-17 18:05:00,
2013-04-17 12:15:00,30.6,24.6,29.98,NE,51,0.0,0.0,78,0.00,,,0.00,Wunderground v.1.15,2013-04-17 18:15:00,
2013-04-17 12:20:00,30.3,24.3,29.97,North,350,0.0,0.0,78,0.00,,,0.00,Wunderground v.1.15,2013-04-17 18:20:00,
2013-04-17 12:25:00,30.7,25.3,29.97,NNW,336,0.0,0.0,80,0.00,,,0.00,Wunderground v.1.15,2013-04-17 18:25:00,
2013-04-17 12:35:00,30.5,24.5,29.97,East,79,0.0,0.0,78,0.00,,,0.00,Wunderground v.1.15,2013-04-17 18:35:00,
2013-04-17 12:40:00,30.0,24.0,29.98,ENE,77,0.0,0.0,78,0.00,,,0.00,Wunderground v.1.15,2013-04-17 18:40:00,
2013-04-17 12:45:00,29.6,23.9,29.97,ENE,74,0.0,0.0,79,0.00,,,0.00,Wunderground v.1.15,2013-04-17 18:45:00,
2013-04-17 12:50:00,29.2,23.5,29.98,ENE,63,0.0,0.0,79,0.00,,,0.00,Wunderground v.1.15,2013-04-17 18:50:00,
2013-04-17 12:55:00,29.2,23.5,29.98,ENE,70,0.0,0.0,79,0.00,,,0.00,Wunderground v.1.15,2013-04-17 18:55:00,
2013-04-17 13:05:00,29.1,23.4,29.98,ENE,60,0.0,0.0,79,0.00,,,0.00,Wunderground v.1.15,2013-04-17 19:05:00,
2013-04-17 13:15:00,29.6,23.6,29.98,ENE,72,0.0,0.0,78,0.00,,,0.00,Wunderground v.1.15,2013-04-17 19:15:00,
2013-04-17 13:20:00,29.1,23.4,29.98,ENE,64,0.0,0.0,79,0.00,,,0.00,Wunderground v.1.15,2013-04-17 19:20:00,
2013-04-17 13:25:00,28.9,23.2,29.99,East,96,0.0,0.0,79,0.00,,,0.00,Wunderground v.1.15,2013-04-17 19:25:00,
2013-04-17 13:30:00,28.8,23.1,29.99,East,86,0.0,0.0,79,0.00,,,0.00,Wunderground v.1.15,2013-04-17 19:30:00,
2013-04-17 13:40:00,28.1,23.0,29.99,ENE,74,0.0,0.0,81,0.00,,,0.00,Wunderground v.1.15,2013-04-17 19:40:00,
2013-04-17 13:45:00,27.9,22.8,30.00,ENE,76,0.0,0.0,81,0.00,,,0.00,Wunderground v.1.15,2013-04-17 19:45:00,
2013-04-17 13:50:00,27.7,22.6,29.99,NNW,347,0.0,0.0,81,0.00,,,0.00,Wunderground v.1.15,2013-04-17 19:50:00,
2013-04-17 13:55:00,27.7,22.6,30.00,NE,43,0.0,0.0,81,0.00,,,0.00,Wunderground v.1.15,2013-04-17 19:55:00,
2013-04-17 14:00:00,28.1,23.0,30.01,ENE,70,0.0,0.0,81,0.00,,,0.00,Wunderground v.1.15,2013-04-17 20:00:00,
2013-04-17 14:05:00,28.6,22.9,30.01,WNW,283,0.0,0.0,79,0.00,,,0.00,Wunderground v.1.15,2013-04-17 20:05:00,
2013-04-17 14:15:00,29.0,22.4,30.02,NE,48,0.0,0.0,76,0.00,,,0.00,Wunderground v.1.15,2013-04-17 20:15:00,
2013-04-17 14:20:00,28.9,22.3,30.03,SSW,195,0.0,0.0,76,0.00,,,0.00,Wunderground v.1.15,2013-04-17 20:20:00,
2013-04-17 14:25:00,29.1,22.8,30.02,SSW,204,0.0,0.0,77,0.00,,,0.00,Wunderground v.1.15,2013-04-17 20:25:00,
2013-04-17 14:30:00,29.3,22.7,30.02,West,264,0.0,0.0,76,0.00,,,0.00,Wunderground v.1.15,2013-04-17 20:30:00,
2013-04-17 14:35:00,29.5,23.2,30.02,SE,124,0.0,0.0,77,0.00,,,0.00,Wunderground v.1.15,2013-04-17 20:35:00,
2013-04-17 14:40:00,29.3,22.0,30.02,NNW,338,0.0,0.0,74,0.00,,,0.00,Wunderground v.1.15,2013-04-17 20:40:00,
2013-04-17 14:45:00,29.3,23.0,30.02,East,98,0.0,0.0,77,0.00,,,0.00,Wunderground v.1.15,2013-04-17 20:45:00,
2013-04-17 14:55:00,28.9,22.3,30.03,East,94,0.0,0.0,76,0.00,,,0.00,Wunderground v.1.15,2013-04-17 20:55:00,
2013-04-17 15:00:00,28.5,21.6,30.04,NNW,345,0.0,0.0,75,0.00,,,0.00,Wunderground v.1.15,2013-04-17 21:00:00,
2013-04-17 15:05:00,28.2,21.3,30.04,West,260,0.0,0.0,75,0.00,,,0.00,Wunderground v.1.15,2013-04-17 21:05:00,
2013-04-17 15:15:00,27.8,21.8,30.04,ESE,113,0.0,0.0,78,0.00,,,0.00,Wunderground v.1.15,2013-04-17 21:15:00,
2013-04-17 15:20:00,28.2,22.8,30.04,East,80,0.0,0.0,80,0.00,,,0.00,Wunderground v.1.15,2013-04-17 21:20:00,
2013-04-17 15:30:00,27.8,21.5,30.05,ENE,68,0.0,0.0,77,0.00,,,0.00,Wunderground v.1.15,2013-04-17 21:30:00,
2013-04-17 15:35:00,27.4,21.1,30.05,ENE,68,0.0,0.0,77,0.00,,,0.00,Wunderground v.1.15,2013-04-17 21:35:00,
2013-04-17 15:40:00,26.7,21.1,30.05,NE,48,0.0,0.0,79,0.00,,,0.00,Wunderground v.1.15,2013-04-17 21:40:00,
2013-04-17 15:45:00,26.5,20.6,30.06,West,263,0.0,0.0,78,0.00,,,0.00,Wunderground v.1.15,2013-04-17 21:45:00,
2013-04-17 15:50:00,26.7,21.1,30.05,NE,34,0.0,0.0,79,0.00,,,0.00,Wunderground v.1.15,2013-04-17 21:50:00,
2013-04-17 15:55:00,26.5,20.9,30.06,ESE,112,0.0,0.0,79,0.00,,,0.00,Wunderground v.1.15,2013-04-17 21:55:00,
2013-04-17 16:00:00,26.1,20.8,30.06,NNE,18,0.0,0.0,80,0.00,,,0.00,Wunderground v.1.15,2013-04-17 22:00:00,
2013-04-17 16:05:00,25.8,20.5,30.05,NE,53,0.0,0.0,80,0.00,,,0.00,Wunderground v.1.15,2013-04-17 22:05:00,
2013-04-17 16:15:00,25.5,20.5,30.05,East,79,0.0,0.0,81,0.00,,,0.00,Wunderground v.1.15,2013-04-17 22:15:00,
2013-04-17 16:20:00,25.5,20.5,30.05,East,89,0.0,0.0,81,0.00,,,0.00,Wunderground v.1.15,2013-04-17 22:20:00,
2013-04-17 16:25:00,25.3,20.0,30.05,North,5,0.0,0.0,80,0.00,,,0.00,Wunderground v.1.15,2013-04-17 22:25:00,
2013-04-17 16:30:00,25.1,19.8,30.05,East,96,0.0,0.0,80,0.00,,,0.00,Wunderground v.1.15,2013-04-17 22:30:00,
2013-04-17 16:35:00,25.0,19.7,30.06,NNE,33,0.0,0.0,80,0.00,,,0.00,Wunderground v.1.15,2013-04-17 22:35:00,
2013-04-17 16:40:00,24.8,19.5,30.07,East,79,0.0,0.0,80,0.00,,,0.00,Wunderground v.1.15,2013-04-17 22:40:00,
2013-04-17 16:50:00,24.7,19.7,30.08,ESE,107,0.0,0.0,81,0.00,,,0.00,Wunderground v.1.15,2013-04-17 22:50:00,
2013-04-17 16:55:00,24.7,19.7,30.08,ESE,104,0.0,0.0,81,0.00,,,0.00,Wunderground v.1.15,2013-04-17 22:55:00,
2013-04-17 17:00:00,24.7,19.7,30.08,ENE,57,0.0,0.0,81,0.00,,,0.00,Wunderground v.1.15,2013-04-17 23:00:00,
2013-04-17 17:05:00,24.6,19.6,30.07,ENE,58,0.0,0.0,81,0.00,,,0.00,Wunderground v.1.15,2013-04-17 23:05:00,
2013-04-17 17:15:00,24.5,19.5,30.09,ENE,63,0.0,0.0,81,0.00,,,0.00,Wunderground v.1.15,2013-04-17 23:15:00,
2013-04-17 17:25:00,24.5,19.5,30.09,East,95,0.0,0.0,81,0.00,,,0.00,Wunderground v.1.15,2013-04-17 23:25:00,
2013-04-17 17:30:00,24.4,19.4,30.09,ENE,71,0.0,0.0,81,0.00,,,0.00,Wunderground v.1.15,2013-04-17 23:30:00,
2013-04-17 17:35:00,24.4,19.7,30.10,NW,323,0.0,0.0,82,0.00,,,0.00,Wunderground v.1.15,2013-04-17 23:35:00,
2013-04-17 17:40:00,24.5,19.5,30.10,NE,50,0.0,0.0,81,0.00,,,0.00,Wunderground v.1.15,2013-04-17 23:40:00,
2013-04-17 17:45:00,24.8,19.8,30.10,NNE,33,0.0,0.0,81,0.00,,,0.00,Wunderground v.1.15,2013-04-17 23:45:00,
2013-04-17 17:50:00,25.0,19.4,30.11,East,88,0.0,0.0,79,0.00,,,0.00,Wunderground v.1.15,2013-04-17 23:50:00,
2013-04-17 17:55:00,24.9,19.3,30.10,ESE,104,0.0,0.0,79,0.00,,,0.00,Wunderground v.1.15,2013-04-17 23:55:00,
2013-04-17 18:05:00,25.1,18.9,30.10,South,180,0.0,0.0,77,0.00,,,0.00,Wunderground v.1.15,2013-04-18 00:05:00,
2013-04-17 18:15:00,24.8,17.7,30.13,NW,323,0.0,0.0,74,0.00,,,0.00,Wunderground v.1.15,2013-04-18 00:15:00,
2013-04-17 18:20:00,25.0,18.2,30.13,SE,133,0.0,0.0,75,0.00,,,0.00,Wunderground v.1.15,2013-04-18 00:20:00,
2013-04-17 18:25:00,24.8,17.7,30.13,ENE,66,0.0,0.0,74,0.00,,,0.00,Wunderground v.1.15,2013-04-18 00:25:00,
2013-04-17 18:30:00,24.7,17.6,30.14,East,90,0.0,0.0,74,0.00,,,0.00,Wunderground v.1.15,2013-04-18 00:30:00,
2013-04-17 18:40:00,24.3,17.2,30.13,ENE,77,0.0,0.0,74,0.00,,,0.00,Wunderground v.1.15,2013-04-18 00:40:00,
2013-04-17 18:45:00,24.2,17.1,30.14,East,81,0.0,0.0,74,0.00,,,0.00,Wunderground v.1.15,2013-04-18 00:45:00,
2013-04-17 18:50:00,24.0,16.9,30.14,SE,124,0.0,0.0,74,0.00,,,0.00,Wunderground v.1.15,2013-04-18 00:50:00,
2013-04-17 18:55:00,24.0,16.9,30.14,West,259,0.0,0.0,74,0.00,,,0.00,Wunderground v.1.15,2013-04-18 00:55:00,
2013-04-17 19:00:00,23.9,17.1,30.14,SW,224,0.0,0.0,75,0.00,,,0.00,Wunderground v.1.15,2013-04-18 01:00:00,
2013-04-17 19:05:00,23.9,17.1,30.16,East,84,0.0,0.0,75,0.00,,,0.00,Wunderground v.1.15,2013-04-18 01:05:00,
2013-04-17 19:15:00,23.8,17.3,30.16,ENE,70,0.0,0.0,76,0.00,,,0.00,Wunderground v.1.15,2013-04-18 01:15:00,
2013-04-17 19:20:00,23.7,17.2,30.16,ENE,64,0.0,0.0,76,0.00,,,0.00,Wunderground v.1.15,2013-04-18 01:20:00,
2013-04-17 19:25:00,23.7,17.2,30.16,ENE,64,0.0,0.0,76,0.00,,,0.00,Wunderground v.1.15,2013-04-18 01:25:00,
2013-04-17 19:30:00,23.6,17.1,30.15,West,262,0.0,0.0,76,0.00,,,0.00,Wunderground v.1.15,2013-04-18 01:30:00,
2013-04-17 19:35:00,23.5,17.3,30.17,NW,320,0.0,0.0,77,0.00,,,0.00,Wunderground v.1.15,2013-04-18 01:35:00,
2013-04-17 19:40:00,23.4,16.9,30.18,East,79,0.0,0.0,76,0.00,,,0.00,Wunderground v.1.15,2013-04-18 01:40:00,
2013-04-17 19:45:00,23.4,16.9,30.18,WSW,240,0.0,0.0,76,0.00,,,0.00,Wunderground v.1.15,2013-04-18 01:45:00,
2013-04-17 19:55:00,23.3,17.2,30.18,ENE,71,0.0,0.0,77,0.00,,,0.00,Wunderground v.1.15,2013-04-18 01:55:00,
2013-04-17 20:00:00,23.1,17.3,30.19,East,79,0.0,0.0,78,0.00,,,0.00,Wunderground v.1.15,2013-04-18 02:00:00,
2013-04-17 20:05:00,22.9,17.1,30.19,ENE,76,0.0,0.0,78,0.00,,,0.00,Wunderground v.1.15,2013-04-18 02:05:00,
2013-04-17 20:15:00,22.6,17.4,30.18,East,94,0.0,0.0,80,0.00,,,0.00,Wunderground v.1.15,2013-04-18 02:15:00,
2013-04-17 20:25:00,22.4,17.5,30.20,ENE,77,0.0,0.0,81,0.00,,,0.00,Wunderground v.1.15,2013-04-18 02:25:00,
2013-04-17 20:30:00,22.4,17.7,30.20,ENE,77,0.0,0.0,82,0.00,,,0.00,Wunderground v.1.15,2013-04-18 02:30:00,
2013-04-17 20:35:00,22.4,17.5,30.20,NNW,328,0.0,0.0,81,0.00,,,0.00,Wunderground v.1.15,2013-04-18 02:35:00,
2013-04-17 20:40:00,22.3,17.6,30.20,ENE,61,0.0,0.0,82,0.00,,,0.00,Wunderground v.1.15,2013-04-18 02:40:00,
2013-04-17 20:45:00,22.3,17.4,30.21,NE,50,0.0,0.0,81,0.00,,,0.00,Wunderground v.1.15,2013-04-18 02:45:00,
2013-04-17 20:50:00,22.3,17.6,30.21,ESE,107,0.0,0.0,82,0.00,,,0.00,Wunderground v.1.15,2013-04-18 02:50:00,
2013-04-17 20:55:00,22.3,17.4,30.21,NE,46,0.0,0.0,81,0.00,,,0.00,Wunderground v.1.15,2013-04-18 02:55:00,
2013-04-17 21:05:00,22.2,17.3,30.20,ENE,72,0.0,0.0,81,0.00,,,0.00,Wunderground v.1.15,2013-04-18 03:05:00,
2013-04-17 21:15:00,22.1,17.2,30.22,East,96,0.0,0.0,81,0.00,,,0.00,Wunderground v.1.15,2013-04-18 03:15:00,
2013-04-17 21:20:00,22.0,17.3,30.21,East,96,0.0,0.0,82,0.00,,,0.00,Wunderground v.1.15,2013-04-18 03:20:00,
2013-04-17 21:25:00,22.0,17.1,30.22,SE,124,0.0,0.0,81,0.00,,,0.00,Wunderground v.1.15,2013-04-18 03:25:00,
2013-04-17 21:30:00,22.0,17.3,30.22,SE,124,0.0,0.0,82,0.00,,,0.00,Wunderground v.1.15,2013-04-18 03:30:00,
2013-04-17 21:40:00,21.8,17.7,30.23,West,266,0.0,0.0,84,0.00,,,0.00,Wunderground v.1.15,2013-04-18 03:40:00,
2013-04-17 21:45:00,21.7,17.6,30.23,West,265,0.0,0.0,84,0.00,,,0.00,Wunderground v.1.15,2013-04-18 03:45:00,
2013-04-17 21:50:00,21.7,17.9,30.24,West,266,0.0,0.0,85,0.00,,,0.00,Wunderground v.1.15,2013-04-18 03:50:00,
2013-04-17 21:55:00,21.7,17.9,30.24,West,266,0.0,0.0,85,0.00,,,0.00,Wunderground v.1.15,2013-04-18 03:55:00,
2013-04-17 22:00:00,21.6,17.8,30.23,West,265,0.0,0.0,85,0.00,,,0.00,Wunderground v.1.15,2013-04-18 04:00:00,
2013-04-17 22:05:00,21.5,17.7,30.23,West,266,0.0,0.0,85,0.00,,,0.00,Wunderground v.1.15,2013-04-18 04:05:00,
2013-04-17 22:10:00,21.5,17.7,30.22,West,269,0.0,0.0,85,0.00,,,0.00,Wunderground v.1.15,2013-04-18 04:10:00,
2013-04-17 22:15:00,21.5,17.7,30.22,NE,40,0.0,0.0,85,0.00,,,0.00,Wunderground v.1.15,2013-04-18 04:15:00,
2013-04-17 22:20:00,21.5,17.7,30.23,ENE,68,0.0,0.0,85,0.00,,,0.00,Wunderground v.1.15,2013-04-18 04:20:00,
2013-04-17 22:25:00,21.6,17.8,30.22,ENE,68,0.0,0.0,85,0.00,,,0.00,Wunderground v.1.15,2013-04-18 04:25:00,
2013-04-17 22:30:00,21.6,17.8,30.23,NE,49,0.0,0.0,85,0.00,,,0.00,Wunderground v.1.15,2013-04-18 04:30:00,
2013-04-17 22:35:00,21.3,17.5,30.23,SE,137,0.0,0.0,85,0.00,,,0.00,Wunderground v.1.15,2013-04-18 04:35:00,
2013-04-17 22:40:00,21.1,17.3,30.22,East,99,0.0,0.0,85,0.00,,,0.00,Wunderground v.1.15,2013-04-18 04:40:00,
2013-04-17 22:45:00,20.8,17.3,30.23,ESE,105,0.0,0.0,86,0.00,,,0.00,Wunderground v.1.15,2013-04-18 04:45:00,
2013-04-17 22:55:00,20.4,17.1,30.23,SE,132,0.0,0.0,87,0.00,,,0.00,Wunderground v.1.15,2013-04-18 04:55:00,
2013-04-17 23:00:00,20.1,16.9,30.22,SE,132,0.0,0.0,87,0.00,,,0.00,Wunderground v.1.15,2013-04-18 05:00:00,
2013-04-17 23:05:00,19.8,16.6,30.22,ESE,115,0.0,0.0,87,0.00,,,0.00,Wunderground v.1.15,2013-04-18 05:05:00,
2013-04-17 23:15:00,19.5,16.5,30.22,NE,49,0.0,0.0,88,0.00,,,0.00,Wunderground v.1.15,2013-04-18 05:15:00,
2013-04-17 23:20:00,19.4,16.4,30.22,ESE,110,0.0,0.0,88,0.00,,,0.00,Wunderground v.1.15,2013-04-18 05:20:00,
2013-04-17 23:30:00,19.2,16.2,30.21,ESE,110,0.0,0.0,88,0.00,,,0.00,Wunderground v.1.15,2013-04-18 05:30:00,
2013-04-17 23:35:00,19.1,16.4,30.21,East,79,0.0,0.0,89,0.00,,,0.00,Wunderground v.1.15,2013-04-18 05:35:00,
2013-04-17 23:40:00,19.0,16.3,30.21,ENE,74,0.0,0.0,89,0.00,,,0.00,Wunderground v.1.15,2013-04-18 05:40:00,
2013-04-17 23:45:00,18.8,15.8,30.20,ENE,74,0.0,0.0,88,0.00,,,0.00,Wunderground v.1.15,2013-04-18 05:45:00,
2013-04-17 23:50:00,18.6,15.9,30.20,ENE,74,0.0,0.0,89,0.00,,,0.00,Wunderground v.1.15,2013-04-18 05:50:00,
2013-04-17 23:55:00,18.4,15.7,30.21,ENE,74,0.0,0.0,89,0.00,,,0.00,Wunderground v.1.15,2013-04-18 05:55:00,